• In Sweden
  • List of Countries
  • For 7 days
  • Water Temperature
  • Satellite Maps
  • Weather Map
  • Weather Widgets
  • user-avatar
    Login

    Hourly Weather Galata

    Today, 23 September, Saturday

    Time Temperature Precipitation Wind Pressure Humidity
    00:00 +13°C° 0 mm 6 mps 756 mmHg 75%
    01:00 +13°C° 0 mm 5 mps 756 mmHg 77%
    02:00 +12°C° 0 mm 5 mps 756 mmHg 80%
    03:00 +12°C° 0 mm 5 mps 756 mmHg 81%
    04:00 +12°C° 0 mm 5 mps 756 mmHg 82%
    05:00 +12°C° 0 mm 5 mps 756 mmHg 82%
    06:00 +13°C° 0 mm 5 mps 756 mmHg 78%
    07:00 +14°C° 0 mm 5 mps 757 mmHg 75%
    08:00 +15°C° 0 mm 5 mps 757 mmHg 68%
    09:00 +17°C° 0 mm 5 mps 757 mmHg 61%
    10:00 +19°C° 0 mm 5 mps 757 mmHg 53%
    11:00 +21°C° 0 mm 4 mps 757 mmHg 46%
    12:00 +22°C° 0 mm 4 mps 757 mmHg 44%
    13:00 +22°C° 0 mm 4 mps 757 mmHg 42%
    14:00 +24°C° 0 mm 3 mps 757 mmHg 39%
    15:00 +24°C° 0 mm 3 mps 757 mmHg 40%
    16:00 +22°C° 0 mm 3 mps 757 mmHg 41%
    17:00 +22°C° 0 mm 3 mps 757 mmHg 42%
    18:00 +21°C° 0 mm 3 mps 757 mmHg 43%
    19:00 +20°C° 0 mm 3 mps 758 mmHg 45%
    20:00 +19°C° 0 mm 4 mps 758 mmHg 46%
    21:00 +18°C° 0 mm 4 mps 758 mmHg 48%
    22:00 +17°C° 0 mm 4 mps 758 mmHg 49%
    23:00 +15°C° 0 mm 4 mps 758 mmHg 51%

    Tomorrow, 24 September, Sunday

    Time Temperature Precipitation Wind Pressure Humidity
    00:00 +15°C° 0 mm 4 mps 758 mmHg 53%
    01:00 +14°C° 0 mm 3 mps 758 mmHg 54%
    02:00 +14°C° 0 mm 3 mps 758 mmHg 56%
    03:00 +14°C° 0 mm 3 mps 758 mmHg 57%
    04:00 +13°C° 0 mm 3 mps 758 mmHg 58%
    05:00 +13°C° 0 mm 3 mps 758 mmHg 59%
    06:00 +16°C° 0 mm 3 mps 758 mmHg 55%
    07:00 +17°C° 0 mm 3 mps 758 mmHg 50%
    08:00 +19°C° 0 mm 4 mps 759 mmHg 45%
    09:00 +20°C° 0 mm 4 mps 759 mmHg 41%
    10:00 +22°C° 0 mm 4 mps 759 mmHg 37%
    11:00 +23°C° 0 mm 4 mps 759 mmHg 33%
    12:00 +25°C° 0 mm 4 mps 759 mmHg 32%
    13:00 +26°C° 0 mm 4 mps 758 mmHg 31%
    14:00 +27°C° 0 mm 4 mps 758 mmHg 29%
    15:00 +26°C° 0 mm 4 mps 758 mmHg 32%
    16:00 +26°C° 0 mm 4 mps 758 mmHg 35%
    17:00 +25°C° 0 mm 4 mps 758 mmHg 37%
    18:00 +22°C° 0 mm 4 mps 758 mmHg 45%
    19:00 +20°C° 0 mm 3 mps 759 mmHg 53%
    20:00 +19°C° 0 mm 3 mps 759 mmHg 61%
    21:00 +18°C° 0 mm 3 mps 759 mmHg 64%
    22:00 +18°C° 0 mm 2 mps 759 mmHg 68%
    23:00 +18°C° 0 mm 2 mps 759 mmHg 72%

    Day after tomorrow, 25 September, Monday

    Time Temperature Precipitation Wind Pressure Humidity
    00:00 +17°C° 0 mm 2 mps 759 mmHg 74%
    01:00 +18°C° 0 mm 1 mps 759 mmHg 77%
    02:00 +18°C° 0 mm 1 mps 759 mmHg 79%
    03:00 +18°C° 0 mm 1 mps 759 mmHg 80%
    04:00 +18°C° 0 mm 1 mps 759 mmHg 81%
    05:00 +16°C° 0 mm 2 mps 759 mmHg 82%
    06:00 +18°C° 0 mm 2 mps 759 mmHg 77%
    07:00 +19°C° 0 mm 3 mps 759 mmHg 71%
    08:00 +20°C° 0 mm 3 mps 759 mmHg 66%
    09:00 +21°C° 0 mm 4 mps 759 mmHg 60%
    10:00 +23°C° 0 mm 5 mps 759 mmHg 53%
    11:00 +25°C° 0 mm 5 mps 759 mmHg 46%
    12:00 +24°C° 0 mm 6 mps 759 mmHg 45%
    13:00 +24°C° 0 mm 6 mps 759 mmHg 45%
    14:00 +24°C° 0 mm 6 mps 759 mmHg 44%
    15:00 +24°C° 0 mm 6 mps 759 mmHg 46%
    16:00 +23°C° 0 mm 6 mps 759 mmHg 48%
    17:00 +22°C° 0 mm 7 mps 759 mmHg 50%
    18:00 +21°C° 0 mm 6 mps 759 mmHg 57%
    19:00 +20°C° 0 mm 5 mps 759 mmHg 64%
    20:00 +17°C° 0 mm 5 mps 759 mmHg 71%
    21:00 +17°C° 0 mm 5 mps 759 mmHg 76%
    22:00 +16°C° 0 mm 5 mps 758 mmHg 81%
    23:00 +17°C° 0 mm 4 mps 758 mmHg 86%

    26 September, Tuesday

    Time Temperature Precipitation Wind Pressure Humidity
    00:00 +15°C° 0 mm 4 mps 758 mmHg 87%
    01:00 +15°C° 0 mm 4 mps 758 mmHg 87%
    02:00 +15°C° 0 mm 4 mps 757 mmHg 88%
    03:00 +15°C° 0 mm 5 mps 757 mmHg 88%
    04:00 +15°C° 0 mm 5 mps 757 mmHg 88%
    05:00 +15°C° 0 mm 5 mps 757 mmHg 87%
    06:00 +16°C° 0 mm 5 mps 757 mmHg 82%
    07:00 +17°C° 0 mm 5 mps 757 mmHg 77%
    08:00 +19°C° 0 mm 5 mps 757 mmHg 72%
    09:00 +21°C° 0 mm 5 mps 757 mmHg 65%
    10:00 +23°C° 0 mm 5 mps 757 mmHg 58%
    11:00 +26°C° 0 mm 5 mps 758 mmHg 51%
    12:00 +26°C° 0.4 mm 6 mps 757 mmHg 53%
    13:00 +24°C° 0.4 mm 6 mps 757 mmHg 55%
    14:00 +24°C° 0.4 mm 7 mps 757 mmHg 57%
    15:00 +23°C° 0.2 mm 7 mps 757 mmHg 59%
    16:00 +22°C° 0.2 mm 7 mps 757 mmHg 62%
    17:00 +21°C° 0.2 mm 7 mps 757 mmHg 65%
    18:00 +20°C° 0 mm 7 mps 758 mmHg 68%
    19:00 +18°C° 0 mm 7 mps 758 mmHg 71%
    20:00 +17°C° 0 mm 7 mps 758 mmHg 74%
    21:00 +17°C° 0 mm 6 mps 758 mmHg 74%
    22:00 +16°C° 0 mm 6 mps 758 mmHg 75%
    23:00 +16°C° 0 mm 5 mps 758 mmHg 75%

    27 September, Wednesday

    Time Temperature Precipitation Wind Pressure Humidity
    00:00 +15°C° 0 mm 5 mps 758 mmHg 74%
    01:00 +15°C° 0 mm 5 mps 758 mmHg 73%
    02:00 +14°C° 0 mm 5 mps 758 mmHg 72%
    03:00 +14°C° 0 mm 5 mps 758 mmHg 70%
    04:00 +14°C° 0 mm 5 mps 758 mmHg 68%
    05:00 +14°C° 0 mm 5 mps 759 mmHg 67%
    06:00 +15°C° 0 mm 5 mps 759 mmHg 64%
    07:00 +16°C° 0 mm 5 mps 759 mmHg 62%
    08:00 +17°C° 0 mm 5 mps 759 mmHg 59%
    09:00 +19°C° 0 mm 5 mps 760 mmHg 60%
    10:00 +20°C° 0 mm 5 mps 760 mmHg 62%
    11:00 +20°C° 0 mm 5 mps 760 mmHg 63%
    12:00 +20°C° 0.2 mm 6 mps 760 mmHg 64%
    13:00 +20°C° 0.2 mm 6 mps 760 mmHg 64%
    14:00 +20°C° 0.2 mm 7 mps 760 mmHg 65%
    15:00 +20°C° 0.1 mm 7 mps 760 mmHg 64%
    16:00 +20°C° 0.1 mm 8 mps 760 mmHg 63%
    17:00 +20°C° 0.1 mm 8 mps 760 mmHg 63%
    18:00 +18°C° 0 mm 8 mps 760 mmHg 67%
    19:00 +17°C° 0 mm 7 mps 761 mmHg 71%
    20:00 +16°C° 0 mm 7 mps 761 mmHg 75%
    21:00 +16°C° 0.1 mm 7 mps 761 mmHg 75%
    22:00 +16°C° 0.1 mm 7 mps 761 mmHg 75%
    23:00 +16°C° 0.1 mm 7 mps 761 mmHg 76%

    28 September, Thursday

    Time Temperature Precipitation Wind Pressure Humidity
    00:00 +15°C° 0 mm 7 mps 761 mmHg 76%
    01:00 +15°C° 0 mm 6 mps 761 mmHg 76%
    02:00 +14°C° 0 mm 6 mps 761 mmHg 76%
    03:00 +14°C° 0 mm 6 mps 761 mmHg 76%
    04:00 +13°C° 0 mm 6 mps 761 mmHg 76%
    05:00 +13°C° 0 mm 6 mps 761 mmHg 77%
    06:00 +14°C° 0 mm 7 mps 761 mmHg 72%
    07:00 +15°C° 0 mm 7 mps 761 mmHg 68%
    08:00 +16°C° 0 mm 7 mps 762 mmHg 64%
    09:00 +17°C° 0.1 mm 8 mps 762 mmHg 60%
    10:00 +18°C° 0.1 mm 8 mps 762 mmHg 57%
    11:00 +20°C° 0.1 mm 8 mps 762 mmHg 53%
    12:00 +20°C° 0.1 mm 8 mps 762 mmHg 52%
    13:00 +20°C° 0.1 mm 8 mps 762 mmHg 51%
    14:00 +20°C° 0.1 mm 8 mps 762 mmHg 50%
    15:00 +18°C° 0 mm 8 mps 762 mmHg 50%
    16:00 +18°C° 0 mm 8 mps 762 mmHg 51%
    17:00 +18°C° 0 mm 8 mps 762 mmHg 51%
    18:00 +16°C° 0 mm 8 mps 762 mmHg 57%
    19:00 +15°C° 0 mm 7 mps 762 mmHg 62%
    20:00 +14°C° 0 mm 7 mps 763 mmHg 67%
    21:00 +12°C° 0.1 mm 7 mps 763 mmHg 68%
    22:00 +12°C° 0.1 mm 7 mps 763 mmHg 69%
    23:00 +11°C° 0.1 mm 7 mps 763 mmHg 70%
    Show more